TimePST,TemperatureF,Dew PointF,Humidity,Sea Level PressureIn,VisibilityMPH,Wind Direction,Wind SpeedMPH,Gust SpeedMPH,PrecipitationIn,Events,Conditions,WindDirDegrees,DateUTC
12:15 AM,35.6,19.4,52,30.15,10.0,Calm,Calm,-,N/A,,Clear,0,2014-01-03 08:15:00
12:35 AM,32.0,19.4,60,30.14,10.0,East,4.6,-,N/A,,Clear,80,2014-01-03 08:35:00
12:55 AM,33.8,19.4,56,30.14,10.0,Calm,Calm,-,N/A,,Clear,0,2014-01-03 08:55:00
1:15 AM,32.0,19.4,60,30.14,10.0,ESE,4.6,-,N/A,,Clear,110,2014-01-03 09:15:00
1:35 AM,33.8,19.4,56,30.13,10.0,Calm,Calm,-,N/A,,Clear,0,2014-01-03 09:35:00
1:55 AM,32.0,19.4,60,30.13,10.0,East,3.5,-,N/A,,Clear,80,2014-01-03 09:55:00
2:15 AM,32.0,19.4,60,30.13,10.0,Calm,Calm,-,N/A,,Clear,0,2014-01-03 10:15:00
2:35 AM,32.0,19.4,60,30.13,10.0,ENE,3.5,-,N/A,,Clear,70,2014-01-03 10:35:00
2:55 AM,30.2,19.4,64,30.12,10.0,Calm,Calm,-,N/A,,Clear,0,2014-01-03 10:55:00
3:15 AM,32.0,19.4,60,30.12,10.0,ENE,3.5,-,N/A,,Clear,70,2014-01-03 11:15:00
3:35 AM,32.0,19.4,60,30.11,10.0,Calm,Calm,-,N/A,,Clear,0,2014-01-03 11:35:00
3:55 AM,28.4,19.4,69,30.10,10.0,NE,3.5,-,N/A,,Clear,50,2014-01-03 11:55:00
4:15 AM,30.2,19.4,64,30.10,10.0,Calm,Calm,-,N/A,,Clear,0,2014-01-03 12:15:00
4:35 AM,32.0,19.4,60,30.10,10.0,Calm,Calm,-,N/A,,Clear,0,2014-01-03 12:35:00
4:55 AM,28.4,19.4,69,30.10,10.0,Calm,Calm,-,N/A,,Clear,0,2014-01-03 12:55:00
5:15 AM,30.2,19.4,64,30.10,10.0,Calm,Calm,-,N/A,,Clear,0,2014-01-03 13:15:00
5:35 AM,30.2,19.4,64,30.10,10.0,ENE,3.5,-,N/A,,Clear,60,2014-01-03 13:35:00
5:55 AM,28.4,19.4,69,30.10,10.0,Calm,Calm,-,N/A,,Clear,0,2014-01-03 13:55:00
6:15 AM,30.2,19.4,64,30.10,10.0,SE,3.5,-,N/A,,Clear,130,2014-01-03 14:15:00
6:35 AM,30.2,19.4,64,30.11,10.0,Calm,Calm,-,N/A,,Clear,0,2014-01-03 14:35:00
6:55 AM,32.0,19.4,60,30.11,10.0,East,3.5,-,N/A,,Clear,90,2014-01-03 14:55:00
7:15 AM,28.4,19.4,69,30.12,10.0,Calm,Calm,-,N/A,,Clear,0,2014-01-03 15:15:00
7:35 AM,32.0,19.4,60,30.12,9.0,Calm,Calm,-,N/A,,Clear,0,2014-01-03 15:35:00
7:55 AM,33.8,21.2,60,30.12,9.0,East,3.5,-,N/A,,Clear,90,2014-01-03 15:55:00
8:15 AM,37.4,21.2,52,30.12,9.0,East,3.5,-,N/A,,Clear,100,2014-01-03 16:15:00
8:35 AM,41.0,23.0,49,30.12,9.0,Calm,Calm,-,N/A,,Clear,0,2014-01-03 16:35:00
8:55 AM,44.6,23.0,43,30.12,9.0,Calm,Calm,-,N/A,,Clear,0,2014-01-03 16:55:00
9:15 AM,48.2,23.0,37,30.13,9.0,Calm,Calm,-,N/A,,Clear,0,2014-01-03 17:15:00
9:35 AM,50.0,23.0,35,30.13,9.0,Calm,Calm,-,N/A,,Clear,0,2014-01-03 17:35:00
9:55 AM,53.6,23.0,30,30.12,9.0,Calm,Calm,-,N/A,,Clear,0,2014-01-03 17:55:00
10:15 AM,59.0,23.0,25,30.12,9.0,Calm,Calm,-,N/A,,Clear,0,2014-01-03 18:15:00
10:35 AM,60.8,19.4,20,30.11,8.0,NW,6.9,-,N/A,,Clear,310,2014-01-03 18:35:00
10:55 AM,62.6,17.6,18,30.10,9.0,West,8.1,-,N/A,,Clear,260,2014-01-03 18:55:00
11:15 AM,62.6,17.6,18,30.08,10.0,WNW,6.9,-,N/A,,Clear,300,2014-01-03 19:15:00
11:35 AM,62.6,17.6,18,30.07,8.0,NW,10.4,-,N/A,,Clear,310,2014-01-03 19:35:00
11:55 AM,62.6,15.8,16,30.06,10.0,NW,8.1,-,N/A,,Clear,310,2014-01-03 19:55:00
12:15 PM,64.4,15.8,15,30.04,10.0,NW,11.5,-,N/A,,Clear,310,2014-01-03 20:15:00
12:35 PM,64.4,15.8,15,30.03,9.0,NW,13.8,-,N/A,,Clear,320,2014-01-03 20:35:00
12:55 PM,64.4,15.8,15,30.02,10.0,NW,13.8,-,N/A,,Clear,320,2014-01-03 20:55:00
1:15 PM,64.4,15.8,15,30.02,9.0,NW,13.8,-,N/A,,Clear,320,2014-01-03 21:15:00
1:35 PM,64.4,15.8,15,30.02,10.0,NW,13.8,-,N/A,,Clear,310,2014-01-03 21:35:00
1:55 PM,62.6,17.6,18,30.02,10.0,NW,12.7,-,N/A,,Clear,320,2014-01-03 21:55:00
2:15 PM,62.6,17.6,18,30.02,10.0,NW,13.8,-,N/A,,Clear,320,2014-01-03 22:15:00
2:35 PM,62.6,19.4,19,30.02,10.0,NW,12.7,-,N/A,,Clear,310,2014-01-03 22:35:00
2:55 PM,60.8,19.4,20,30.02,9.0,WNW,10.4,-,N/A,,Clear,300,2014-01-03 22:55:00
3:15 PM,60.8,21.2,22,30.02,9.0,NW,10.4,-,N/A,,Clear,310,2014-01-03 23:15:00
3:35 PM,59.0,19.4,22,30.02,9.0,NW,10.4,-,N/A,,Clear,310,2014-01-03 23:35:00
3:55 PM,59.0,19.4,22,30.02,9.0,NW,10.4,-,N/A,,Clear,310,2014-01-03 23:55:00
4:15 PM,57.2,19.4,23,30.02,9.0,NW,6.9,-,N/A,,Clear,310,2014-01-04 00:15:00
4:35 PM,53.6,19.4,26,30.01,9.0,NW,8.1,-,N/A,,Clear,310,2014-01-04 00:35:00
4:55 PM,51.8,19.4,28,30.02,8.0,NW,6.9,-,N/A,,Clear,320,2014-01-04 00:55:00
5:15 PM,50.0,21.2,32,30.02,9.0,NW,4.6,-,N/A,,Clear,320,2014-01-04 01:15:00
5:35 PM,50.0,21.2,32,30.02,10.0,NW,6.9,-,N/A,,Clear,310,2014-01-04 01:35:00
5:55 PM,48.2,23.0,37,30.02,8.0,WNW,3.5,-,N/A,,Clear,290,2014-01-04 01:55:00
6:15 PM,48.2,19.4,32,30.03,9.0,West,6.9,-,N/A,,Clear,270,2014-01-04 02:15:00
6:35 PM,48.2,21.2,34,30.03,9.0,WNW,4.6,-,N/A,,Clear,290,2014-01-04 02:35:00
6:55 PM,48.2,21.2,34,30.03,9.0,Calm,Calm,-,N/A,,Clear,0,2014-01-04 02:55:00
7:15 PM,46.4,19.4,34,30.04,10.0,Calm,Calm,-,N/A,,Clear,0,2014-01-04 03:15:00
7:35 PM,46.4,19.4,34,30.04,10.0,West,3.5,-,N/A,,Clear,270,2014-01-04 03:35:00
7:55 PM,46.4,19.4,34,30.04,10.0,WNW,3.5,-,N/A,,Clear,290,2014-01-04 03:55:00
8:15 PM,44.6,19.4,37,30.04,10.0,Calm,Calm,-,N/A,,Clear,0,2014-01-04 04:15:00
8:35 PM,42.8,19.4,39,30.04,10.0,Calm,Calm,-,N/A,,Clear,0,2014-01-04 04:35:00
8:55 PM,44.6,19.4,37,30.04,10.0,Calm,Calm,-,N/A,,Clear,0,2014-01-04 04:55:00
9:15 PM,42.8,17.6,36,30.04,10.0,West,4.6,-,N/A,,Clear,270,2014-01-04 05:15:00
9:35 PM,44.6,17.6,34,30.04,10.0,West,3.5,-,N/A,,Clear,280,2014-01-04 05:35:00
9:55 PM,44.6,17.6,34,30.04,10.0,West,5.8,-,N/A,,Clear,260,2014-01-04 05:55:00
10:15 PM,44.6,17.6,34,30.05,10.0,West,3.5,-,N/A,,Clear,270,2014-01-04 06:15:00
10:35 PM,42.8,17.6,36,30.04,10.0,WNW,3.5,-,N/A,,Clear,300,2014-01-04 06:35:00
10:55 PM,46.4,19.4,34,30.04,10.0,NW,6.9,-,N/A,,Clear,320,2014-01-04 06:55:00
11:15 PM,46.4,17.6,32,30.03,10.0,North,-9999.0,-,N/A,,Clear,0,2014-01-04 07:15:00
11:35 PM,44.6,17.6,34,30.03,10.0,North,-9999.0,-,N/A,,Clear,0,2014-01-04 07:35:00
11:55 PM,44.6,17.6,34,30.03,10.0,WNW,5.8,-,N/A,,Clear,300,2014-01-04 07:55:00